Starlink 1716

operational
NORAD ID: 46672 Int'l Des: 2020-073 Owner: SPXS Country: US Constellation: starlink
LEOCIRCULARSTARLINK_TYPE

Starlink 1716について

説明を読み込み中...

リアルタイム位置

3D地球を読み込み中...

次回通過

高度履歴

Altitude vs Time

uPlot chart will show altitude changes over time

軌道要素

1 46672U 20073C 25343.59577466 .00106728 00000-0 23426-2 0 9996
2 46672 53.0525 274.8582 0014315 77.6738 282.5868 15.43127137283719
Epoch: Dec 9, 2025 • Age: 6 hours

現在のステータス

高度 431.0 km
速度 7.66 km/s
衛星直下点 25.22°N, 94.42°W
打ち上げ日 Oct 18, 2020
運用期間 5.1 years
タイプ internet

技術仕様

分類 Payload
質量 260.00 kg
乾燥質量 248.00 kg
総質量 260.00 kg
長さ 0.20 m
直径 2.80 m
スパン 9.00 m
形状 Box + pan
製造者 SPXS
バスタイプ Starlink
フェーズステータス In Orbit
所有者/国 SPXS/US

大規模コンステレーション

Loading constellations...